Location: Namasale
(1.5000°N, 32.6167°E)
Time: 10:11:08
(UTC+00:00)

Courier 1B - Pass Details

Date: 28 April 2021
Orbit: 962 x 1209 km, 28.3° (Epoch: 15 May)

Event Time Altitude Azimuth Distance (km) Brightness Sun altitude
Rises 18:00:15 0° 250° (WSW) 3,685 11.2 -31.7°
Reaches altitude 10° 18:05:42 10° 214° (SSW) 2,793 10.0 -33.0°
Maximum altitude 18:07:10 11° 201° (SSW) 2,758 9.9 -33.3°
Enters shadow 18:07:22 11° 199° (SSW) 2,762 9.8 -33.4°
Drops below altitude 10° 18:08:39 10° 188° (S) 2,829 - -33.7°
Sets 18:14:22 0° 152° (SSE) 3,861 - -35.0°
